Home > Weather > Borken > Past weeks

Flag for Germany Past Weather in Borken, North Rhine-Westphalia, Germany — Yesterday and Last 2 Weeks

Now
56 °F

Overcast.


Feels Like: 56 °F
Forecast: 57 / 72 °F
Wind: 1 mph from East

Location: Twenthe

Current Time: Jul 26, 2016 at 4:48:59 AM

Latest Report: Jul 26, 2016 at 3:00 AM


Visibility: 0 mi

Pressure: 30.13 "Hg

Humidity: 100%

Dew Point: 56 °F

Location of BorkenLocation

Past Weather in Borken — Graph

°F

Borken Temperature Yesterday

Maximum temperature yesterday: 77 °F (at 4:00 PM)
Minimum temperature yesterday: 60 °F (at 6:00 AM)
Average temperature yesterday: 68 °F

High & Low Weather Summary for the Past Weeks

 TemperatureHumidityPressure
High92 °F (Jul 20, 4:00 PM)100% (Jul 13, 1:00 AM)30.27 "Hg (Jul 13, 1:00 AM)
Low48 °F (Jul 14, 3:00 AM)23% (Jul 19, 4:00 PM)29.75 "Hg (Jul 11, 5:00 AM)
Average67 °F78%30.06 "Hg
* Reported Jul 11 3:00 AM — Jul 26 3:00 AM, Borken, Weather by CustomWeather, © 2016

Note: Actual official high and low records may vary slightly from our data, if they occured in-between our weather recording intervals... More about our weather records

Advertising

Borken Weather History for the Previous 24 Hours

Scroll right to see more
 ConditionsComfort  
Time TempWeatherWind HumidityBarometerVisibility
3:00 AM
Tue, Jul 26
56 °FOvercast.1 mph100%30.13 "Hg0 mi
2:00 AM57 °FOvercast.1 mph99%30.13 "Hg1 mi
1:00 AM58 °FOvercast.1 mph100%30.13 "Hg0 mi
12:00 AM59 °FOvercast.1 mph100%30.13 "Hg4 mi
11:00 PM
Mon, Jul 25
60 °FFog.2 mph99%30.12 "Hg6 mi
10:00 PM62 °FFog.1 mph94%30.12 "Hg2 mi
9:00 PM65 °FOvercast.3 mph86%30.10 "Hg14 mi
8:00 PM68 °FOvercast.3 mph91%30.09 "Hg6 mi
7:00 PM73 °FOvercast.3 mph74%30.08 "Hg12 mi
6:00 PM75 °FPartly sunny.6 mph67%30.07 "Hg15 mi
5:00 PM74 °FOvercast.7 mph73%30.08 "Hg10 mi
4:00 PM77 °FOvercast.6 mph67%30.07 "Hg14 mi
3:00 PM74 °FOvercast.7 mph72%30.08 "Hg19 mi
2:00 PM73 °FOvercast.5 mph75%30.08 "Hg19 mi
1:00 PM73 °FOvercast.5 mph74%30.08 "Hg22 mi
12:00 PM74 °FOvercast.5 mph71%30.07 "Hg18 mi
11:00 AM73 °FOvercast.5 mph74%30.08 "Hg12 mi
10:00 AM71 °FOvercast.5 mph74%30.07 "Hg9 mi
8:00 AM67 °FOvercast.1 mph93%30.07 "Hg4 mi
7:00 AM62 °FLow clouds.1 mph100%30.07 "Hg0 mi
6:00 AM60 °FLow clouds.1 mph99%30.07 "Hg0 mi
5:00 AM62 °FLow clouds.1 mph100%30.07 "Hg0 mi
4:00 AM62 °FPassing clouds.No wind99%30.07 "Hg0 mi
Weather by CustomWeather, © 2016

See weather overviewHow to use our weather pages